,,Stat6,,Stat2,,Stat8,,Stat9,,Stat10,,Wind1,,Wind1,
time,status,PA1M_AVG,status,PR1M_SUM,status,RH1M_AVG,status,SR1M_AVG,status,TA1M_AVG,status,W1dAve1m,status,W1sAve1m,
2004-07-25, 00:00:00,VALID,917.709,VALID,0,VALID,99.4789,VALID,-0.101885,VALID,19.7256,VALID,268,VALID,0.349848,
2004-07-25, 00:01:00,VALID,917.713,VALID,0,VALID,99.5717,VALID,-0.0509425,VALID,19.7189,VALID,305,VALID,0.518229,
2004-07-25, 00:02:00,VALID,917.709,VALID,0,VALID,99.648,VALID,-0.0849042,VALID,19.7253,VALID,304,VALID,0.0806686,
2004-07-25, 00:03:00,VALID,917.73,VALID,0,VALID,99.634,VALID,-0.0509425,VALID,19.7353,VALID,288,VALID,0.263579,
2004-07-25, 00:04:00,VALID,917.717,VALID,0,VALID,99.5717,VALID,-0.0849042,VALID,19.7087,VALID,286,VALID,0.26734,
2004-07-25, 00:05:00,VALID,917.712,VALID,0,VALID,99.4903,VALID,-0.0849042,VALID,19.7127,VALID,287,VALID,0.275856,
2004-07-25, 00:06:00,VALID,917.695,VALID,0,VALID,99.4509,VALID,-0.0679233,VALID,19.7062,VALID,287,VALID,0.258743,
2004-07-25, 00:07:00,VALID,917.67,VALID,0,VALID,99.4395,VALID,-0.0509425,VALID,19.699,VALID,288,VALID,0.233648,
2004-07-25, 00:08:00,VALID,917.666,VALID,0,VALID,99.3823,VALID,0.0169808,VALID,19.6779,VALID,288,VALID,0.00639205,
2004-07-25, 00:09:00,VALID,917.661,VALID,0,VALID,99.367,VALID,0.0339617,VALID,19.6886,VALID,305,VALID,0.213542,
2004-07-25, 00:10:00,VALID,917.656,VALID,0,VALID,99.3861,VALID,0.0169808,VALID,19.6915,VALID,9,VALID,0.532493,
2004-07-25, 00:11:00,VALID,917.667,VALID,0,VALID,99.4369,VALID,0.0339617,VALID,19.7209,VALID,14,VALID,0.696378,
2004-07-25, 00:12:00,VALID,917.671,VALID,0,VALID,99.5158,VALID,0.0509425,VALID,19.7397,VALID,3,VALID,0.417614,
2004-07-25, 00:13:00,VALID,917.646,VALID,0,VALID,99.4331,VALID,0.0339617,VALID,19.7335,VALID,3,VALID,0.314024,
2004-07-25, 00:14:00,VALID,917.638,VALID,0,VALID,99.4458,VALID,0.0509425,VALID,19.7238,VALID,3,VALID,0.0218023,
2004-07-25, 00:15:00,VALID,917.594,VALID,0,VALID,99.4789,VALID,0.0339617,VALID,19.7435,VALID,7,VALID,0.637195,
2004-07-25, 00:16:00,VALID,917.576,VALID,0,VALID,99.4764,VALID,0.0339617,VALID,19.7469,VALID,19,VALID,1.16016,
2004-07-25, 00:17:00,VALID,917.567,VALID,0,VALID,99.442,VALID,0.0169808,VALID,19.7536,VALID,20,VALID,0.936699,
2004-07-25, 00:18:00,VALID,917.55,VALID,0,VALID,99.3454,VALID,0,VALID,19.7305,VALID,15,VALID,0.658067,
2004-07-25, 00:19:00,VALID,917.547,VALID,0,VALID,99.2525,VALID,0,VALID,19.7276,VALID,342,VALID,0.397636,
2004-07-25, 00:20:00,VALID,917.543,VALID,0,VALID,99.2793,VALID,0,VALID,19.7112,VALID,342,VALID,0.409884,
2004-07-25, 00:21:00,VALID,917.519,VALID,0,VALID,99.3199,VALID,0.0169808,VALID,19.7176,VALID,341,VALID,0.406851,
2004-07-25, 00:22:00,VALID,917.506,VALID,0,VALID,99.3263,VALID,0.0169808,VALID,19.7082,VALID,321,VALID,0.158854,
2004-07-25, 00:23:00,VALID,917.489,VALID,0,VALID,99.3594,VALID,0.0169808,VALID,19.7045,VALID,320,VALID,0.0671875,
2004-07-25, 00:24:00,VALID,917.469,VALID,0,VALID,99.414,VALID,0.0169808,VALID,19.7144,VALID,328,VALID,0.131098,
2004-07-25, 00:25:00,VALID,917.446,VALID,0,VALID,99.4395,VALID,0.0169808,VALID,19.7278,VALID,349,VALID,0.424237,
2004-07-25, 00:26:00,VALID,917.435,VALID,0,VALID,99.4204,VALID,0.0169808,VALID,19.7241,VALID,10,VALID,0.710211,
2004-07-25, 00:27:00,VALID,917.44,VALID,0,VALID,99.4102,VALID,0,VALID,19.7241,VALID,21,VALID,0.918713,
2004-07-25, 00:28:00,VALID,917.429,VALID,0,VALID,99.3454,VALID,0,VALID,19.7372,VALID,19,VALID,1.14766,
2004-07-25, 00:29:00,VALID,917.432,VALID,0,VALID,99.1991,VALID,0.0169808,VALID,19.7112,VALID,19,VALID,1.18173,
2004-07-25, 00:30:00,VALID,917.438,VALID,0,VALID,99.1826,VALID,0.0169808,VALID,19.6918,VALID,15,VALID,1.23492,
2004-07-25, 00:31:00,VALID,917.435,VALID,0,VALID,99.2042,VALID,0.0339617,VALID,19.6853,VALID,16,VALID,1.05221,
2004-07-25, 00:32:00,VALID,917.436,VALID,0,VALID,99.2182,VALID,0,VALID,19.6786,VALID,20,VALID,1.16679,
2004-07-25, 00:33:00,VALID,917.434,VALID,0,VALID,99.1877,VALID,0.0339617,VALID,19.6622,VALID,21,VALID,0.892442,
2004-07-25, 00:34:00,VALID,917.408,VALID,0,VALID,99.1241,VALID,0.0169808,VALID,19.6463,VALID,22,VALID,0.948946,
2004-07-25, 00:35:00,VALID,917.387,VALID,0,VALID,99.1457,VALID,0.0509425,VALID,19.6399,VALID,25,VALID,1.1955,
2004-07-25, 00:36:00,VALID,917.348,VALID,0,VALID,99.189,VALID,0,VALID,19.6463,VALID,27,VALID,1.01781,
2004-07-25, 00:37:00,VALID,917.312,VALID,0,VALID,99.2297,VALID,0,VALID,19.6371,VALID,18,VALID,0.767299,
2004-07-25, 00:38:00,VALID,917.269,VALID,0,VALID,99.278,VALID,-0.0849042,VALID,19.6416,VALID,13,VALID,0.567535,
2004-07-25, 00:39:00,VALID,917.244,VALID,0,VALID,99.3098,VALID,-0.0509425,VALID,19.6421,VALID,12,VALID,0.80692,
2004-07-25, 00:40:00,VALID,917.216,VALID,0,VALID,99.3416,VALID,0,VALID,19.6384,VALID,12,VALID,0.873365,
2004-07-25, 00:41:00,VALID,917.188,VALID,0,VALID,99.3734,VALID,-0.0339617,VALID,19.625,VALID,17,VALID,0.848544,
2004-07-25, 00:42:00,VALID,917.188,VALID,0,VALID,99.3975,VALID,-0.0679233,VALID,19.6453,VALID,20,VALID,0.526105,
2004-07-25, 00:43:00,VALID,917.175,VALID,0,VALID,99.4764,VALID,-0.0849042,VALID,19.6481,VALID,20,VALID,0.395089,
2004-07-25, 00:44:00,VALID,917.154,VALID,0,VALID,99.5043,VALID,-0.0509425,VALID,19.6508,VALID,24,VALID,0.767299,
2004-07-25, 00:45:01,VALID,917.149,VALID,0,VALID,99.4535,VALID,-0.0679233,VALID,19.6679,VALID,26,VALID,0.380078,
2004-07-25, 00:46:00,VALID,917.141,VALID,0,VALID,99.3924,VALID,-0.0339617,VALID,19.6483,VALID,26,VALID,0.420346,
2004-07-25, 00:47:00,VALID,917.12,VALID,0,VALID,99.4001,VALID,-0.0509425,VALID,19.6386,VALID,340,VALID,0.401867,
2004-07-25, 00:48:00,VALID,917.119,VALID,0,VALID,99.4738,VALID,-0.0679233,VALID,19.6384,VALID,17,VALID,0.658156,
2004-07-25, 00:49:00,VALID,917.111,VALID,0,VALID,99.5361,VALID,-0.0339617,VALID,19.6585,VALID,6,VALID,0.757431,
2004-07-25, 00:50:00,VALID,917.099,VALID,0,VALID,99.4853,VALID,-0.0339617,VALID,19.6448,VALID,357,VALID,1.10781,
2004-07-25, 00:51:00,VALID,917.103,VALID,0,VALID,99.4929,VALID,-0.0169808,VALID,19.622,VALID,8,VALID,1.07292,
2004-07-25, 00:52:00,VALID,917.088,VALID,0,VALID,99.5768,VALID,0,VALID,19.6222,VALID,360,VALID,1.16164,
2004-07-25, 00:53:01,VALID,917.072,VALID,0,VALID,99.6226,VALID,0.0509425,VALID,19.6113,VALID,354,VALID,0.86109,
2004-07-25, 00:54:00,VALID,917.063,VALID,0,VALID,99.7281,VALID,0.0509425,VALID,19.5947,VALID,19,VALID,0.709695,
2004-07-25, 00:55:00,VALID,917.046,VALID,0,VALID,99.7803,VALID,0.0509425,VALID,19.6143,VALID,18,VALID,0.984197,
2004-07-25, 00:56:00,VALID,917.032,VALID,0,VALID,99.7599,VALID,0.0509425,VALID,19.6113,VALID,7,VALID,0.706782,
2004-07-25, 00:57:00,VALID,917.025,VALID,0,VALID,99.7777,VALID,0.0169808,VALID,19.6041,VALID,2,VALID,0.765262,
2004-07-25, 00:58:00,VALID,917.017,VALID,0,VALID,99.7472,VALID,0.0509425,VALID,19.5977,VALID,4,VALID,1.09673,
2004-07-25, 00:59:01,VALID,917.02,VALID,0,VALID,99.6124,VALID,0.0339617,VALID,19.5887,VALID,356,VALID,0.62391,
2004-07-25, 01:00:01,VALID,917.011,VALID,0,VALID,99.5692,VALID,0.0339617,VALID,19.5758,VALID,332,VALID,0.520089,
2004-07-25, 01:01:00,VALID,917.021,VALID,0,VALID,99.5374,VALID,0,VALID,19.5698,VALID,337,VALID,0.705664,
2004-07-25, 01:02:01,VALID,917.018,VALID,0,VALID,99.5463,VALID,0.0509425,VALID,19.5599,VALID,14,VALID,0.9375,
2004-07-25, 01:03:00,VALID,917.016,VALID,0,VALID,99.4903,VALID,0.0509425,VALID,19.5438,VALID,12,VALID,0.919643,
2004-07-25, 01:04:00,VALID,917.005,VALID,0,VALID,99.4229,VALID,0.0679233,VALID,19.5149,VALID,21,VALID,0.915799,
2004-07-25, 01:05:00,VALID,916.978,VALID,0,VALID,99.4814,VALID,0.0339617,VALID,19.4822,VALID,11,VALID,0.796113,
2004-07-25, 01:06:00,VALID,916.962,VALID,0,VALID,99.4942,VALID,0.0339617,VALID,19.4496,VALID,11,VALID,0.896723,
2004-07-25, 01:07:00,VALID,916.94,VALID,0,VALID,99.5031,VALID,0.0509425,VALID,19.4372,VALID,5,VALID,1.12576,
2004-07-25, 01:08:00,VALID,916.921,VALID,0,VALID,99.5005,VALID,-0.0339617,VALID,19.4098,VALID,352,VALID,1.0846,
2004-07-25, 01:09:00,VALID,916.905,VALID,0,VALID,99.5704,VALID,-0.0509425,VALID,19.3771,VALID,358,VALID,1.3763,
2004-07-25, 01:10:00,VALID,916.902,VALID,0,VALID,99.6239,VALID,-0.0339617,VALID,19.3547,VALID,359,VALID,1.01199,
2004-07-25, 01:11:00,VALID,916.91,VALID,0,VALID,99.7307,VALID,-0.0849042,VALID,19.345,VALID,350,VALID,0.372768,
2004-07-25, 01:12:00,VALID,916.911,VALID,0,VALID,99.7892,VALID,-0.0339617,VALID,19.3252,VALID,351,VALID,0.0795139,
2004-07-25, 01:13:00,VALID,916.922,VALID,0,VALID,99.8362,VALID,-0.0509425,VALID,19.3321,VALID,351,VALID,0.0405869,
2004-07-25, 01:14:00,VALID,916.941,VALID,0,VALID,99.8629,VALID,-0.0509425,VALID,19.3254,VALID,351,VALID,0.0833333,
2004-07-25, 01:15:01,VALID,916.923,VALID,0,VALID,99.8795,VALID,-0.0339617,VALID,19.3192,VALID,351,VALID,0.00104167,
2004-07-25, 01:16:00,VALID,916.923,VALID,0,VALID,99.8146,VALID,-0.0339617,VALID,19.2993,VALID,351,VALID,0.148438,
2004-07-25, 01:17:01,VALID,916.892,VALID,0,VALID,99.8502,VALID,-0.0679233,VALID,19.2901,VALID,351,VALID,0.272017,
2004-07-25, 01:18:01,VALID,916.873,VALID,0,VALID,99.9641,VALID,-0.0169808,VALID,19.2795,VALID,352,VALID,0.391868,
2004-07-25, 01:19:00,VALID,916.842,VALID,0,VALID,100,VALID,-0.0849042,VALID,19.3197,VALID,9,VALID,0.726004,
2004-07-25, 01:20:00,VALID,916.813,VALID,0,VALID,100,VALID,-0.0339617,VALID,19.3261,VALID,28,VALID,0.726181,
2004-07-25, 01:21:00,VALID,916.78,VALID,0,VALID,100,VALID,-0.0679233,VALID,19.3194,VALID,22,VALID,0.722656,
2004-07-25, 01:22:00,VALID,916.771,VALID,0,VALID,99.9517,VALID,-0.0339617,VALID,19.2991,VALID,2,VALID,0.521984,
2004-07-25, 01:23:00,VALID,916.761,VALID,0,VALID,99.9341,VALID,0.0339617,VALID,19.3021,VALID,351,VALID,0.352364,
2004-07-25, 01:24:00,VALID,916.744,VALID,0,VALID,99.9151,VALID,0,VALID,19.2986,VALID,351,VALID,0.0345486,
2004-07-25, 01:25:00,VALID,916.751,VALID,0,VALID,99.8731,VALID,0.0169808,VALID,19.2825,VALID,351,VALID,0.00290698,
2004-07-25, 01:26:00,VALID,916.755,VALID,0,VALID,99.6111,VALID,0.0169808,VALID,19.2569,VALID,351,VALID,0.341751,
2004-07-25, 01:27:00,VALID,916.755,VALID,0,VALID,99.3492,VALID,0.0509425,VALID,19.1791,VALID,89,VALID,0.357292,
2004-07-25, 01:28:00,VALID,916.721,VALID,0,VALID,99.2093,VALID,0.0509425,VALID,19.1081,VALID,118,VALID,0.95816,
2004-07-25, 01:29:00,VALID,916.717,VALID,0,VALID,99.292,VALID,0.0339617,VALID,19.0539,VALID,128,VALID,1.09012,
2004-07-25, 01:30:00,VALID,916.717,VALID,0,VALID,99.676,VALID,0.0169808,VALID,19.0242,VALID,129,VALID,1.14044,
2004-07-25, 01:31:01,VALID,916.707,VALID,0,VALID,99.8286,VALID,0,VALID,19.0373,VALID,129,VALID,0.946514,
2004-07-25, 01:32:01,VALID,916.694,VALID,0,VALID,99.7675,VALID,0,VALID,19.0214,VALID,125,VALID,0.773638,
2004-07-25, 01:33:00,VALID,916.676,VALID,0,VALID,99.8426,VALID,0.0169808,VALID,18.9857,VALID,106,VALID,0.949929,
2004-07-25, 01:34:00,VALID,916.653,VALID,0,VALID,99.9964,VALID,0.0509425,VALID,18.9529,VALID,103,VALID,0.750182,
2004-07-25, 01:35:00,VALID,916.64,VALID,0,VALID,100,VALID,0,VALID,18.9571,VALID,95,VALID,0.925781,
2004-07-25, 01:36:00,VALID,916.63,VALID,0,VALID,100,VALID,0.0509425,VALID,18.9566,VALID,85,VALID,0.787246,
2004-07-25, 01:37:00,VALID,916.615,VALID,0,VALID,100,VALID,0.0509425,VALID,18.9273,VALID,93,VALID,0.900799,
2004-07-25, 01:38:00,VALID,916.608,VALID,0,VALID,100,VALID,0,VALID,18.9213,VALID,101,VALID,0.849144,
2004-07-25, 01:39:00,VALID,916.589,VALID,0,VALID,100,VALID,-0.0169808,VALID,18.9405,VALID,88,VALID,0.788336,
2004-07-25, 01:40:00,VALID,916.588,VALID,0,VALID,100,VALID,-0.0169808,VALID,18.9278,VALID,72,VALID,0.750347,
2004-07-25, 01:41:00,VALID,916.565,VALID,0,VALID,100,VALID,-0.0169808,VALID,18.9287,VALID,71,VALID,0.624112,
2004-07-25, 01:42:01,VALID,916.553,VALID,0,VALID,100,VALID,0,VALID,18.9084,VALID,81,VALID,0.715693,
2004-07-25, 01:43:01,VALID,916.548,VALID,0,VALID,100,VALID,-0.0169808,VALID,18.8928,VALID,84,VALID,0.53125,
2004-07-25, 01:44:00,VALID,916.556,VALID,0,VALID,100,VALID,-0.0509425,VALID,18.8665,VALID,84,VALID,0.631288,
2004-07-25, 01:45:00,VALID,916.579,VALID,0,VALID,100,VALID,-0.0339617,VALID,18.8505,VALID,103,VALID,0.719531,
2004-07-25, 01:46:00,VALID,916.585,VALID,0,VALID,100,VALID,0,VALID,18.8416,VALID,111,VALID,0.484947,
2004-07-25, 01:47:00,VALID,916.612,VALID,0,VALID,100,VALID,0,VALID,18.7899,VALID,112,VALID,0.243862,
2004-07-25, 01:48:00,VALID,916.649,VALID,0,VALID,100,VALID,0,VALID,18.7505,VALID,112,VALID,0,
2004-07-25, 01:49:00,VALID,916.674,VALID,0,VALID,99.9667,VALID,0,VALID,18.6536,VALID,112,VALID,0,
2004-07-25, 01:50:00,VALID,916.716,VALID,0,VALID,99.8502,VALID,-0.0679233,VALID,18.5632,VALID,112,VALID,0.117369,
2004-07-25, 01:51:01,VALID,916.761,VALID,0,VALID,99.9329,VALID,-0.0169808,VALID,18.5346,VALID,112,VALID,0.0141369,
2004-07-25, 01:52:00,VALID,916.793,VALID,0,VALID,99.9748,VALID,-0.0169808,VALID,18.5252,VALID,112,VALID,0.0541295,
2004-07-25, 01:53:00,VALID,916.808,VALID,0,VALID,100,VALID,0.0169808,VALID,18.5381,VALID,112,VALID,0.216146,
2004-07-25, 01:54:01,VALID,916.823,VALID,0,VALID,100,VALID,0,VALID,18.563,VALID,112,VALID,0.116257,
2004-07-25, 01:55:00,VALID,916.845,VALID,0,VALID,100,VALID,-0.0169808,VALID,18.6151,VALID,112,VALID,0.187137,
2004-07-25, 01:56:00,VALID,916.846,VALID,0,VALID,100,VALID,-0.0169808,VALID,18.6762,VALID,112,VALID,0.216974,
2004-07-25, 01:57:00,VALID,916.847,VALID,0,VALID,100,VALID,-0.0169808,VALID,18.7505,VALID,112,VALID,0.0853795,
2004-07-25, 01:58:00,VALID,916.856,VALID,0,VALID,100,VALID,0,VALID,18.7544,VALID,112,VALID,0,
2004-07-25, 01:59:01,VALID,916.863,VALID,0,VALID,100,VALID,-0.0169808,VALID,18.6898,VALID,112,VALID,0,
2004-07-25, 02:00:00,VALID,916.865,VALID,0,VALID,100,VALID,0,VALID,18.628,VALID,112,VALID,0,
2004-07-25, 02:01:00,VALID,916.873,VALID,0,VALID,100,VALID,-0.0169808,VALID,18.6151,VALID,112,VALID,0,
2004-07-25, 02:02:00,VALID,916.861,VALID,0,VALID,100,VALID,0,VALID,18.632,VALID,112,VALID,0,
2004-07-25, 02:03:01,VALID,916.868,VALID,0,VALID,100,VALID,0,VALID,18.5704,VALID,112,VALID,0,
2004-07-25, 02:04:01,VALID,916.863,VALID,0,VALID,99.9893,VALID,0,VALID,18.5416,VALID,112,VALID,0,
2004-07-25, 02:05:01,VALID,916.846,VALID,0,VALID,100,VALID,0,VALID,18.5609,VALID,112,VALID,0,
2004-07-25, 02:06:01,VALID,916.832,VALID,0,VALID,99.9311,VALID,0,VALID,18.5349,VALID,112,VALID,0,
2004-07-25, 02:07:00,VALID,916.827,VALID,0,VALID,99.9662,VALID,0,VALID,18.5155,VALID,112,VALID,0,
2004-07-25, 02:08:00,VALID,916.822,VALID,0,VALID,100,VALID,0.0679233,VALID,18.5466,VALID,112,VALID,0,
2004-07-25, 02:09:00,VALID,916.814,VALID,0,VALID,100,VALID,0.0849042,VALID,18.5651,VALID,112,VALID,0,
2004-07-25, 02:10:00,VALID,916.795,VALID,0,VALID,100,VALID,0.0849042,VALID,18.5916,VALID,112,VALID,0,
2004-07-25, 02:11:00,VALID,916.783,VALID,0,VALID,99.9458,VALID,0.101885,VALID,18.5685,VALID,112,VALID,0.0674716,
2004-07-25, 02:12:00,VALID,916.779,VALID,0,VALID,99.5298,VALID,0.101885,VALID,18.4786,VALID,76,VALID,0.575648,
2004-07-25, 02:13:00,VALID,916.783,VALID,0,VALID,99.4115,VALID,0.0849042,VALID,18.4274,VALID,71,VALID,0.285792,
2004-07-25, 02:14:01,VALID,916.799,VALID,0,VALID,99.4077,VALID,0.0509425,VALID,18.4016,VALID,71,VALID,0.0811298,
2004-07-25, 02:15:00,VALID,916.812,VALID,0,VALID,99.4585,VALID,0,VALID,18.3924,VALID,71,VALID,0,
2004-07-25, 02:16:00,VALID,916.821,VALID,0,VALID,99.6124,VALID,-0.0169808,VALID,18.4122,VALID,71,VALID,0.00669643,
2004-07-25, 02:17:00,VALID,916.819,VALID,0,VALID,99.6633,VALID,-0.0339617,VALID,18.4353,VALID,71,VALID,0.0611662,
2004-07-25, 02:18:00,VALID,916.816,VALID,0,VALID,99.6289,VALID,-0.0169808,VALID,18.4482,VALID,71,VALID,0.0628397,
2004-07-25, 02:19:00,VALID,916.81,VALID,0,VALID,99.5972,VALID,0,VALID,18.4415,VALID,71,VALID,0,
2004-07-25, 02:20:01,VALID,916.784,VALID,0,VALID,99.498,VALID,-0.0169808,VALID,18.4546,VALID,69,VALID,0.191406,
2004-07-25, 02:21:00,VALID,916.752,VALID,0,VALID,99.1852,VALID,-0.0169808,VALID,18.4028,VALID,63,VALID,0.531428,
2004-07-25, 02:22:00,VALID,916.724,VALID,0,VALID,99.1165,VALID,-0.0339617,VALID,18.3608,VALID,53,VALID,0.597124,
2004-07-25, 02:23:00,VALID,916.718,VALID,0,VALID,99.3123,VALID,0,VALID,18.3608,VALID,53,VALID,0.384993,
2004-07-25, 02:24:01,VALID,916.701,VALID,0,VALID,99.5107,VALID,0,VALID,18.3735,VALID,58,VALID,0.536111,
2004-07-25, 02:25:00,VALID,916.719,VALID,0,VALID,99.9189,VALID,-0.0169808,VALID,18.4214,VALID,105,VALID,0.577943,
2004-07-25, 02:26:00,VALID,916.704,VALID,0,VALID,99.868,VALID,-0.0169808,VALID,18.4539,VALID,109,VALID,0.478338,
2004-07-25, 02:27:01,VALID,916.715,VALID,0,VALID,99.821,VALID,-0.0339617,VALID,18.4768,VALID,111,VALID,0.137091,
2004-07-25, 02:28:00,VALID,916.732,VALID,0,VALID,99.6264,VALID,0.0169808,VALID,18.4574,VALID,111,VALID,0.227582,
2004-07-25, 02:29:01,VALID,916.741,VALID,0,VALID,99.3441,VALID,0,VALID,18.4092,VALID,111,VALID,0.0853924,
2004-07-25, 02:30:00,VALID,916.74,VALID,0,VALID,99.0733,VALID,0.0169808,VALID,18.3446,VALID,111,VALID,0.0692708,
2004-07-25, 02:31:00,VALID,916.756,VALID,0,VALID,99.2627,VALID,-0.0169808,VALID,18.3158,VALID,111,VALID,0.332422,
2004-07-25, 02:32:00,VALID,916.756,VALID,0,VALID,99.5399,VALID,0.0169808,VALID,18.3186,VALID,111,VALID,0.394622,
2004-07-25, 02:33:00,VALID,916.758,VALID,0,VALID,99.9321,VALID,0,VALID,18.3834,VALID,110,VALID,0.540923,
2004-07-25, 02:34:01,VALID,916.748,VALID,0,VALID,99.9041,VALID,0.0169808,VALID,18.4021,VALID,108,VALID,0.295632,
2004-07-25, 02:35:01,VALID,916.748,VALID,0,VALID,99.4789,VALID,0,VALID,18.3352,VALID,108,VALID,0.324826,
2004-07-25, 02:36:01,VALID,916.744,VALID,0,VALID,99.4357,VALID,0.0169808,VALID,18.2895,VALID,71,VALID,0.544034,
2004-07-25, 02:37:01,VALID,916.724,VALID,0,VALID,99.4179,VALID,0,VALID,18.2635,VALID,68,VALID,0.431176,
2004-07-25, 02:38:01,VALID,916.733,VALID,0,VALID,99.498,VALID,0.0169808,VALID,18.2407,VALID,68,VALID,0.479288,
2004-07-25, 02:39:01,VALID,916.73,VALID,0,VALID,99.5476,VALID,0.0169808,VALID,18.2185,VALID,68,VALID,0.372523,
2004-07-25, 02:40:00,VALID,916.758,VALID,0,VALID,99.7256,VALID,0.0169808,VALID,18.2282,VALID,68,VALID,0.282138,
2004-07-25, 02:41:01,VALID,916.755,VALID,0,VALID,99.9494,VALID,0,VALID,18.2506,VALID,68,VALID,0.208147,
2004-07-25, 02:42:01,VALID,916.742,VALID,0,VALID,99.9967,VALID,0.0169808,VALID,18.2573,VALID,68,VALID,0.21926,
2004-07-25, 02:43:01,VALID,916.721,VALID,0,VALID,100,VALID,-0.0169808,VALID,18.2826,VALID,68,VALID,0.511719,
2004-07-25, 02:44:01,VALID,916.723,VALID,0,VALID,99.9776,VALID,0.0169808,VALID,18.2801,VALID,67,VALID,0.343023,
2004-07-25, 02:45:01,VALID,916.701,VALID,0,VALID,99.8248,VALID,0,VALID,18.2347,VALID,60,VALID,0.504383,
2004-07-25, 02:46:01,VALID,916.705,VALID,0,VALID,99.8934,VALID,0,VALID,18.2287,VALID,60,VALID,0.475,
2004-07-25, 02:47:01,VALID,916.702,VALID,0,VALID,99.9583,VALID,0.0169808,VALID,18.2247,VALID,60,VALID,0.447027,
2004-07-25, 02:48:01,VALID,916.697,VALID,0,VALID,99.9761,VALID,0.0169808,VALID,18.2448,VALID,60,VALID,0.0202753,
2004-07-25, 02:49:01,VALID,916.7,VALID,0,VALID,99.9771,VALID,0.0169808,VALID,18.2349,VALID,60,VALID,0,
2004-07-25, 02:50:01,VALID,916.693,VALID,0,VALID,100,VALID,0,VALID,18.2607,VALID,60,VALID,0,
2004-07-25, 02:51:00,VALID,916.676,VALID,0,VALID,100,VALID,0,VALID,18.296,VALID,60,VALID,0.127858,
2004-07-25, 02:52:01,VALID,916.674,VALID,0,VALID,100,VALID,-0.0169808,VALID,18.3287,VALID,60,VALID,0,
2004-07-25, 02:53:01,VALID,916.667,VALID,0,VALID,100,VALID,-0.0169808,VALID,18.338,VALID,60,VALID,0,
2004-07-25, 02:54:01,VALID,916.654,VALID,0,VALID,100,VALID,0,VALID,18.3636,VALID,60,VALID,0,
2004-07-25, 02:55:00,VALID,916.64,VALID,0,VALID,100,VALID,-0.0169808,VALID,18.4127,VALID,60,VALID,0,
2004-07-25, 02:56:01,VALID,916.635,VALID,0,VALID,100,VALID,0,VALID,18.4226,VALID,60,VALID,0.184593,
2004-07-25, 02:57:00,VALID,916.652,VALID,0,VALID,99.6707,VALID,0,VALID,18.3027,VALID,60,VALID,0.429861,
2004-07-25, 02:58:00,VALID,916.669,VALID,0,VALID,98.9995,VALID,0,VALID,18.1251,VALID,57,VALID,0.555778,
2004-07-25, 02:59:01,VALID,916.695,VALID,0,VALID,99.1292,VALID,0,VALID,18.0737,VALID,51,VALID,0.471289,
2004-07-25, 03:00:01,VALID,916.736,VALID,0,VALID,99.3924,VALID,0,VALID,18.0737,VALID,51,VALID,0.411345,
2004-07-25, 03:01:01,VALID,916.753,VALID,0,VALID,99.8642,VALID,0,VALID,18.1157,VALID,51,VALID,0.282584,
2004-07-25, 03:02:01,VALID,916.77,VALID,0,VALID,100,VALID,0,VALID,18.1544,VALID,51,VALID,0.162348,
2004-07-25, 03:03:01,VALID,916.777,VALID,0,VALID,100,VALID,0,VALID,18.183,VALID,53,VALID,0.260476,
2004-07-25, 03:04:01,VALID,916.779,VALID,0,VALID,99.911,VALID,0,VALID,18.1673,VALID,75,VALID,0.481771,
2004-07-25, 03:05:01,VALID,916.791,VALID,0,VALID,99.9273,VALID,0.0169808,VALID,18.1251,VALID,117,VALID,0.752418,
2004-07-25, 03:06:01,VALID,916.793,VALID,0,VALID,100,VALID,0,VALID,18.1606,VALID,118,VALID,0.63891,
2004-07-25, 03:07:01,VALID,916.805,VALID,0,VALID,100,VALID,0,VALID,18.2093,VALID,116,VALID,0.589939,
2004-07-25, 03:08:01,VALID,916.797,VALID,0,VALID,100,VALID,-0.0849042,VALID,18.2944,VALID,81,VALID,0.64577,
2004-07-25, 03:09:01,VALID,916.811,VALID,0,VALID,100,VALID,-0.101885,VALID,18.3622,VALID,81,VALID,0.470279,
2004-07-25, 03:10:01,VALID,916.818,VALID,0,VALID,100,VALID,-0.101885,VALID,18.3654,VALID,81,VALID,0.167878,
2004-07-25, 03:11:01,VALID,916.832,VALID,0,VALID,100,VALID,-0.0849042,VALID,18.3207,VALID,81,VALID,0,
2004-07-25, 03:12:01,VALID,916.848,VALID,0,VALID,100,VALID,-0.101885,VALID,18.3594,VALID,81,VALID,0,
2004-07-25, 03:13:01,VALID,916.845,VALID,0,VALID,100,VALID,-0.101885,VALID,18.4141,VALID,81,VALID,0,
2004-07-25, 03:14:01,VALID,916.851,VALID,0,VALID,100,VALID,-0.101885,VALID,18.4496,VALID,81,VALID,0,
2004-07-25, 03:15:01,VALID,916.85,VALID,0,VALID,100,VALID,-0.118866,VALID,18.4392,VALID,81,VALID,0,
2004-07-25, 03:16:01,VALID,916.837,VALID,0,VALID,100,VALID,-0.0849042,VALID,18.433,VALID,81,VALID,0.157885,
2004-07-25, 03:17:01,VALID,916.834,VALID,0,VALID,99.9791,VALID,-0.0849042,VALID,18.4367,VALID,80,VALID,0.164807,
2004-07-25, 03:18:01,VALID,916.826,VALID,0,VALID,99.9362,VALID,-0.101885,VALID,18.4367,VALID,79,VALID,0.357558,
2004-07-25, 03:19:01,VALID,916.82,VALID,0,VALID,99.6048,VALID,-0.101885,VALID,18.3949,VALID,58,VALID,0.629192,
2004-07-25, 03:20:01,VALID,916.831,VALID,0,VALID,99.6429,VALID,-0.118866,VALID,18.3855,VALID,55,VALID,0.520774,
2004-07-25, 03:21:00,VALID,916.85,VALID,0,VALID,99.7243,VALID,-0.101885,VALID,18.3984,VALID,55,VALID,0.279726,
2004-07-25, 03:22:00,VALID,916.864,VALID,0,VALID,99.6175,VALID,-0.101885,VALID,18.3815,VALID,49,VALID,0.106534,
2004-07-25, 03:23:00,VALID,916.881,VALID,0,VALID,99.6925,VALID,-0.101885,VALID,18.3845,VALID,295,VALID,0.551711,
2004-07-25, 03:24:00,VALID,916.887,VALID,0,VALID,99.9474,VALID,-0.101885,VALID,18.453,VALID,273,VALID,0.518415,
2004-07-25, 03:25:00,VALID,916.872,VALID,0,VALID,100,VALID,-0.101885,VALID,18.498,VALID,273,VALID,0.252257,
2004-07-25, 03:26:00,VALID,916.849,VALID,0,VALID,100,VALID,-0.101885,VALID,18.5372,VALID,304,VALID,0.273611,
2004-07-25, 03:27:00,VALID,916.839,VALID,0,VALID,99.8739,VALID,-0.0849042,VALID,18.4883,VALID,12,VALID,0.590545,
2004-07-25, 03:28:00,VALID,916.818,VALID,0,VALID,99.6747,VALID,-0.101885,VALID,18.427,VALID,12,VALID,0.490234,
2004-07-25, 03:29:00,VALID,916.815,VALID,0,VALID,99.7205,VALID,-0.101885,VALID,18.4143,VALID,12,VALID,0.294331,
2004-07-25, 03:30:00,VALID,916.79,VALID,0,VALID,99.6722,VALID,-0.101885,VALID,18.4037,VALID,12,VALID,0.251143,
2004-07-25, 03:31:00,VALID,916.755,VALID,0,VALID,99.5056,VALID,-0.0679233,VALID,18.391,VALID,12,VALID,0.341463,
2004-07-25, 03:32:00,VALID,916.737,VALID,0,VALID,99.2691,VALID,-0.101885,VALID,18.3301,VALID,12,VALID,0.470526,
2004-07-25, 03:33:00,VALID,916.726,VALID,0,VALID,99.1546,VALID,-0.101885,VALID,18.269,VALID,12,VALID,0.550495,
2004-07-25, 03:34:00,VALID,916.715,VALID,0,VALID,99.2398,VALID,-0.0849042,VALID,18.2462,VALID,11,VALID,0.70434,
2004-07-25, 03:35:00,VALID,916.714,VALID,0,VALID,99.2932,VALID,-0.0849042,VALID,18.2238,VALID,11,VALID,0.674893,
2004-07-25, 03:36:00,VALID,916.719,VALID,0,VALID,99.5616,VALID,-0.0849042,VALID,18.2563,VALID,360,VALID,0.867733,